^^

..:: Storico WU ::..




Lo storico viene creato da WUnderground con i dati che la stazione Meteomincio invia al loro server. L' aggiornamento viene fatto ogni 5 minuti circa, tuttavia possono esserci intervalli pił ampi a causa di errori, interruzioni di servizio o problemi nell' invio tramite FTP.


Storico stazione MeteoMincio
Giorno Sommario per Dicembre 15, 2022 Unità:  Metrico    Inglese   Entrambi
Giorno Settimana Mese Anno
  Max: Min: Media:
Temperatura: 5.0 °C 3.0 °C 4 °C
Dew Point: 4.0 °C 2.0 °C 2.9 °C
Umidità: 96% 88% 92%
Velocità vento: 20km/h 1km/h 8.1km/h
Raffica: 26km/h - -
Direzione- - South
Pressione: 1009.7 hPa 1002.6 hPa -
Precipitazioni: 19.20 mm    
 
 
Tabulato Dati per Dicembre 15, 2022
Ora Temperatura Dew Point Pressione Direzione Velocità vento Raffica Umidità Intensità pioggia (oraria) Info solare Situazione
00:04 4.0 °C 2.0 °C 1006.2 hPa West 8 km/h 10 km/h 91% 0.00 mm 0.00 W/m2 unknown
00:09 4.0 °C 2.0 °C 1006.3 hPa West 7 km/h 10 km/h 91% 0.00 mm 0.00 W/m2 unknown
00:14 4.0 °C 2.0 °C 1006.3 hPa WSW 6 km/h 8 km/h 91% 0.00 mm 0.00 W/m2 unknown
00:19 4.0 °C 2.0 °C 1006.4 hPa West 8 km/h 13 km/h 91% 0.00 mm 0.00 W/m2 unknown
00:24 4.0 °C 2.0 °C 1006.3 hPa West 10 km/h 13 km/h 91% 0.00 mm 0.00 W/m2 unknown
00:29 4.0 °C 2.0 °C 1006.3 hPa West 10 km/h 13 km/h 91% 0.00 mm 0.00 W/m2 unknown
00:34 4.0 °C 2.0 °C 1006.3 hPa West 8 km/h 13 km/h 91% 0.00 mm 0.00 W/m2 unknown
00:39 4.0 °C 2.0 °C 1006.5 hPa West 9 km/h 15 km/h 91% 0.00 mm 0.00 W/m2 unknown
00:44 4.0 °C 2.0 °C 1006.5 hPa West 11 km/h 15 km/h 91% 0.00 mm 0.00 W/m2 unknown
00:49 4.0 °C 2.0 °C 1006.4 hPa WNW 10 km/h 14 km/h 91% 0.00 mm 0.00 W/m2 unknown
00:54 4.0 °C 2.0 °C 1006.1 hPa WNW 11 km/h 17 km/h 90% 0.00 mm 0.00 W/m2 unknown
00:59 4.0 °C 2.0 °C 1006.1 hPa WNW 9 km/h 16 km/h 90% 0.00 mm 0.00 W/m2 unknown
01:04 4.0 °C 2.0 °C 1006.1 hPa WNW 9 km/h 11 km/h 90% 0.00 mm 0.00 W/m2 unknown
01:09 4.0 °C 2.0 °C 1006.1 hPa West 9 km/h 11 km/h 90% 0.00 mm 0.00 W/m2 unknown
01:14 4.0 °C 2.0 °C 1006.1 hPa West 8 km/h 10 km/h 90% 0.00 mm 0.00 W/m2 unknown
01:19 4.0 °C 2.0 °C 1006.0 hPa West 6 km/h 10 km/h 89% 0.00 mm 0.00 W/m2 unknown
01:24 4.0 °C 2.0 °C 1006.0 hPa West 6 km/h 10 km/h 89% 0.00 mm 0.00 W/m2 unknown
01:29 4.0 °C 2.0 °C 1006.0 hPa West 6 km/h 8 km/h 89% 0.00 mm 0.00 W/m2 unknown
01:34 4.0 °C 2.0 °C 1006.1 hPa West 8 km/h 11 km/h 89% 0.00 mm 0.00 W/m2 unknown
01:39 4.0 °C 2.0 °C 1006.2 hPa West 7 km/h 11 km/h 89% 0.00 mm 0.00 W/m2 unknown
01:44 4.0 °C 2.0 °C 1006.2 hPa West 7 km/h 11 km/h 89% 0.00 mm 0.00 W/m2 unknown
01:49 4.0 °C 2.0 °C 1006.2 hPa West 8 km/h 11 km/h 89% 0.00 mm 0.00 W/m2 unknown
01:54 4.0 °C 2.0 °C 1006.2 hPa WNW 9 km/h 11 km/h 89% 0.00 mm 0.00 W/m2 unknown
01:59 4.0 °C 2.0 °C 1006.2 hPa WNW 8 km/h 11 km/h 89% 0.00 mm 0.00 W/m2 unknown
02:04 4.0 °C 2.0 °C 1006.2 hPa WNW 8 km/h 11 km/h 89% 0.00 mm 0.00 W/m2 unknown
02:09 4.0 °C 2.0 °C 1006.3 hPa WNW 9 km/h 11 km/h 89% 0.00 mm 0.00 W/m2 unknown
02:14 4.0 °C 2.0 °C 1006.3 hPa WNW 8 km/h 10 km/h 89% 0.00 mm 0.00 W/m2 unknown
02:19 4.0 °C 2.0 °C 1006.3 hPa WNW 6 km/h 10 km/h 89% 0.00 mm 0.00 W/m2 unknown
02:24 4.0 °C 2.0 °C 1006.2 hPa WNW 6 km/h 8 km/h 89% 0.00 mm 0.00 W/m2 unknown
02:29 4.0 °C 2.0 °C 1006.3 hPa West 7 km/h 10 km/h 89% 0.00 mm 0.00 W/m2 unknown
02:34 4.0 °C 2.0 °C 1006.3 hPa West 5 km/h 10 km/h 89% 0.00 mm 0.00 W/m2 unknown
02:39 4.0 °C 2.0 °C 1006.3 hPa West 4 km/h 6 km/h 89% 0.00 mm 0.00 W/m2 unknown
02:44 4.0 °C 2.0 °C 1006.4 hPa West 4 km/h 6 km/h 89% 0.00 mm 0.00 W/m2 unknown
02:49 4.0 °C 2.0 °C 1006.4 hPa West 4 km/h 6 km/h 89% 0.00 mm 0.00 W/m2 unknown
02:54 4.0 °C 2.0 °C 1006.4 hPa West 3 km/h 5 km/h 89% 0.00 mm 0.00 W/m2 unknown
02:59 4.0 °C 2.0 °C 1006.5 hPa WSW 4 km/h 6 km/h 89% 0.00 mm 0.00 W/m2 unknown
03:04 3.0 °C 2.0 °C 1006.5 hPa WSW 5 km/h 6 km/h 90% 0.00 mm 0.00 W/m2 unknown
03:09 3.0 °C 2.0 °C 1006.5 hPa SW 5 km/h 8 km/h 90% 0.00 mm 0.00 W/m2 unknown
03:14 3.0 °C 2.0 °C 1006.6 hPa SW 6 km/h 8 km/h 90% 0.00 mm 0.00 W/m2 unknown
03:19 3.0 °C 2.0 °C 1006.5 hPa WSW 7 km/h 10 km/h 90% 0.00 mm 0.00 W/m2 unknown
03:24 3.0 °C 2.0 °C 1006.5 hPa WSW 7 km/h 10 km/h 90% 0.00 mm 0.00 W/m2 unknown
03:29 3.0 °C 2.0 °C 1006.4 hPa WSW 6 km/h 10 km/h 90% 0.00 mm 0.00 W/m2 unknown
03:34 3.0 °C 2.0 °C 1006.5 hPa WSW 7 km/h 10 km/h 90% 0.00 mm 0.00 W/m2 unknown
03:39 3.0 °C 2.0 °C 1006.5 hPa WSW 7 km/h 10 km/h 90% 0.00 mm 0.00 W/m2 unknown
03:44 3.0 °C 2.0 °C 1006.6 hPa WSW 7 km/h 10 km/h 90% 0.00 mm 0.00 W/m2 unknown
03:49 3.0 °C 2.0 °C 1006.6 hPa WSW 7 km/h 10 km/h 90% 0.00 mm 0.00 W/m2 unknown
03:54 3.0 °C 2.0 °C 1006.5 hPa WSW 5 km/h 10 km/h 90% 0.00 mm 0.00 W/m2 unknown
03:59 3.0 °C 2.0 °C 1006.4 hPa WSW 5 km/h 6 km/h 90% 0.00 mm 0.00 W/m2 unknown
04:04 3.0 °C 2.0 °C 1006.4 hPa WSW 6 km/h 8 km/h 90% 0.00 mm 0.00 W/m2 unknown
04:09 3.0 °C 2.0 °C 1006.7 hPa WSW 8 km/h 10 km/h 90% 0.00 mm 0.00 W/m2 unknown
04:14 3.0 °C 2.0 °C 1006.7 hPa WSW 8 km/h 10 km/h 90% 0.00 mm 0.00 W/m2 unknown
04:19 3.0 °C 2.0 °C 1006.5 hPa West 6 km/h 8 km/h 90% 0.00 mm 0.00 W/m2 unknown
04:24 3.0 °C 2.0 °C 1006.5 hPa West 5 km/h 8 km/h 90% 0.00 mm 0.00 W/m2 unknown
04:29 3.0 °C 2.0 °C 1006.6 hPa West 4 km/h 6 km/h 90% 0.00 mm 0.00 W/m2 unknown
04:34 3.0 °C 2.0 °C 1006.6 hPa WNW 4 km/h 6 km/h 90% 0.00 mm 0.00 W/m2 unknown
04:39 3.0 °C 2.0 °C 1006.6 hPa WNW 4 km/h 6 km/h 90% 0.00 mm 0.00 W/m2 unknown
04:44 3.0 °C 2.0 °C 1006.6 hPa WNW 4 km/h 6 km/h 90% 0.00 mm 0.00 W/m2 unknown
04:49 3.0 °C 2.0 °C 1006.6 hPa WNW 4 km/h 6 km/h 90% 0.00 mm 0.00 W/m2 unknown
04:54 3.0 °C 2.0 °C 1006.8 hPa WNW 3 km/h 6 km/h 90% 0.00 mm 0.00 W/m2 unknown
04:59 3.0 °C 2.0 °C 1006.9 hPa West 3 km/h 5 km/h 90% 0.00 mm 0.00 W/m2 unknown
05:04 3.0 °C 2.0 °C 1007.0 hPa WSW 4 km/h 6 km/h 90% 0.00 mm 0.00 W/m2 unknown
05:09 3.0 °C 2.0 °C 1007.1 hPa SW 4 km/h 6 km/h 90% 0.00 mm 0.00 W/m2 unknown
05:14 3.0 °C 2.0 °C 1007.2 hPa SW 4 km/h 6 km/h 90% 0.00 mm 0.00 W/m2 unknown
05:19 3.0 °C 2.0 °C 1007.2 hPa SW 4 km/h 6 km/h 90% 0.00 mm 0.00 W/m2 unknown
05:24 3.0 °C 2.0 °C 1007.0 hPa SW 5 km/h 8 km/h 90% 0.00 mm 0.00 W/m2 unknown
05:29 3.0 °C 2.0 °C 1007.0 hPa SW 5 km/h 8 km/h 90% 0.00 mm 0.00 W/m2 unknown
05:34 3.0 °C 2.0 °C 1007.0 hPa SW 5 km/h 8 km/h 90% 0.00 mm 0.00 W/m2 unknown
05:39 3.0 °C 2.0 °C 1007.0 hPa SW 5 km/h 8 km/h 90% 0.00 mm 0.00 W/m2 unknown
05:44 3.0 °C 2.0 °C 1007.2 hPa SW 4 km/h 6 km/h 90% 0.00 mm 0.00 W/m2 unknown
05:49 3.0 °C 2.0 °C 1007.1 hPa WSW 4 km/h 6 km/h 90% 0.00 mm 0.00 W/m2 unknown
05:54 3.0 °C 2.0 °C 1007.1 hPa West 5 km/h 6 km/h 90% 0.00 mm 0.00 W/m2 unknown
05:59 3.0 °C 2.0 °C 1007.1 hPa West 5 km/h 6 km/h 90% 0.00 mm 0.00 W/m2 unknown
06:04 3.0 °C 2.0 °C 1007.1 hPa West 4 km/h 6 km/h 90% 0.00 mm 0.00 W/m2 unknown
06:09 3.0 °C 2.0 °C 1007.0 hPa WSW 5 km/h 6 km/h 90% 0.00 mm 0.00 W/m2 unknown
06:14 3.0 °C 2.0 °C 1007.1 hPa SW 4 km/h 6 km/h 91% 0.00 mm 0.00 W/m2 unknown
06:19 3.0 °C 2.0 °C 1007.2 hPa SW 3 km/h 6 km/h 91% 0.00 mm 0.00 W/m2 unknown
06:24 3.0 °C 2.0 °C 1007.4 hPa WSW 4 km/h 6 km/h 91% 0.00 mm 0.00 W/m2 unknown
06:29 3.0 °C 2.0 °C 1007.4 hPa SW 4 km/h 6 km/h 91% 0.00 mm 0.00 W/m2 unknown
06:34 3.0 °C 2.0 °C 1007.4 hPa SW 5 km/h 6 km/h 91% 0.00 mm 0.00 W/m2 unknown
06:39 3.0 °C 2.0 °C 1007.5 hPa SW 5 km/h 6 km/h 91% 0.00 mm 0.00 W/m2 unknown
06:44 3.0 °C 2.0 °C 1007.5 hPa SW 5 km/h 6 km/h 91% 0.00 mm 0.00 W/m2 unknown
06:49 3.0 °C 2.0 °C 1007.5 hPa SW 5 km/h 6 km/h 91% 0.00 mm 0.00 W/m2 unknown
06:54 3.0 °C 2.0 °C 1007.5 hPa SW 6 km/h 8 km/h 91% 0.00 mm 0.00 W/m2 unknown
06:59 3.0 °C 2.0 °C 1007.5 hPa SW 7 km/h 8 km/h 91% 0.00 mm 0.00 W/m2 unknown
07:04 3.0 °C 2.0 °C 1007.7 hPa SW 7 km/h 8 km/h 91% 0.00 mm 0.00 W/m2 unknown
07:09 3.0 °C 2.0 °C 1007.8 hPa SW 4 km/h 8 km/h 91% 0.00 mm 0.00 W/m2 unknown
07:14 3.0 °C 2.0 °C 1007.9 hPa SW 5 km/h 6 km/h 91% 0.00 mm 0.00 W/m2 unknown
07:19 3.0 °C 2.0 °C 1008.1 hPa SW 7 km/h 10 km/h 91% 0.00 mm 0.00 W/m2 unknown
07:24 3.0 °C 2.0 °C 1008.1 hPa SSW 6 km/h 10 km/h 91% 0.00 mm 0.00 W/m2 unknown
07:29 3.0 °C 2.0 °C 1008.2 hPa SW 5 km/h 6 km/h 91% 0.00 mm 0.00 W/m2 unknown
07:34 4.0 °C 2.0 °C 1008.2 hPa SW 5 km/h 8 km/h 91% 0.00 mm 0.00 W/m2 unknown
07:39 4.0 °C 2.0 °C 1008.3 hPa WSW 5 km/h 8 km/h 91% 0.00 mm 0.00 W/m2 unknown
07:44 4.0 °C 2.0 °C 1008.4 hPa West 4 km/h 6 km/h 91% 0.00 mm 0.00 W/m2 unknown
07:49 4.0 °C 2.0 °C 1008.5 hPa NW 4 km/h 6 km/h 91% 0.00 mm 0.00 W/m2 unknown
07:54 4.0 °C 2.0 °C 1008.6 hPa NW 2 km/h 5 km/h 91% 0.00 mm 0.00 W/m2 unknown
07:59 4.0 °C 2.0 °C 1008.6 hPa NW 2 km/h 4 km/h 91% 0.00 mm 0.00 W/m2 unknown
08:04 4.0 °C 2.0 °C 1008.6 hPa North 2 km/h 4 km/h 91% 0.00 mm 0.00 W/m2 unknown
08:09 4.0 °C 2.0 °C 1008.5 hPa North 3 km/h 4 km/h 91% 0.00 mm 5.00 W/m2 unknown
08:14 4.0 °C 2.0 °C 1008.6 hPa North 2 km/h 4 km/h 91% 0.00 mm 7.00 W/m2 unknown
08:19 4.0 °C 2.0 °C 1008.8 hPa NE 3 km/h 6 km/h 91% 0.00 mm 11.00 W/m2 unknown
08:24 4.0 °C 2.0 °C 1008.8 hPa ESE 3 km/h 6 km/h 91% 0.00 mm 16.00 W/m2 unknown
08:29 4.0 °C 2.0 °C 1008.8 hPa East 2 km/h 5 km/h 91% 0.00 mm 16.00 W/m2 unknown
08:34 4.0 °C 2.0 °C 1008.9 hPa East 3 km/h 6 km/h 91% 0.00 mm 21.00 W/m2 unknown
08:39 4.0 °C 2.0 °C 1009.0 hPa East 3 km/h 6 km/h 91% 0.00 mm 26.00 W/m2 unknown
08:44 4.0 °C 2.0 °C 1009.1 hPa ENE 4 km/h 6 km/h 91% 0.00 mm 23.00 W/m2 unknown
08:49 4.0 °C 3.0 °C 1009.3 hPa ENE 4 km/h 6 km/h 91% 0.00 mm 21.00 W/m2 unknown
08:54 4.0 °C 3.0 °C 1009.4 hPa ENE 3 km/h 5 km/h 91% 0.00 mm 19.00 W/m2 unknown
08:59 4.0 °C 3.0 °C 1009.5 hPa ENE 4 km/h 6 km/h 91% 0.00 mm 35.00 W/m2 unknown
09:04 4.0 °C 3.0 °C 1009.7 hPa ENE 4 km/h 6 km/h 91% 0.00 mm 35.00 W/m2 unknown
09:09 4.0 °C 3.0 °C 1009.7 hPa NE 5 km/h 6 km/h 91% 0.00 mm 30.00 W/m2 unknown
09:14 4.0 °C 3.0 °C 1009.5 hPa NNE 5 km/h 6 km/h 91% 0.00 mm 32.00 W/m2 unknown
09:19 4.0 °C 3.0 °C 1009.3 hPa North 7 km/h 8 km/h 91% 0.00 mm 35.00 W/m2 unknown
09:24 4.0 °C 3.0 °C 1009.2 hPa NNE 8 km/h 10 km/h 91% 0.00 mm 39.00 W/m2 unknown
09:29 4.0 °C 3.0 °C 1009.4 hPa NNE 7 km/h 10 km/h 91% 0.00 mm 32.00 W/m2 unknown
09:34 4.0 °C 3.0 °C 1009.4 hPa NE 7 km/h 10 km/h 91% 0.00 mm 35.00 W/m2 unknown
09:39 4.0 °C 3.0 °C 1009.6 hPa ENE 5 km/h 8 km/h 91% 0.00 mm 32.00 W/m2 unknown
09:44 4.0 °C 3.0 °C 1009.7 hPa ENE 6 km/h 8 km/h 91% 0.00 mm 25.00 W/m2 unknown
09:49 4.0 °C 3.0 °C 1009.7 hPa ENE 5 km/h 8 km/h 91% 0.00 mm 26.00 W/m2 unknown
09:54 4.0 °C 3.0 °C 1009.6 hPa ENE 7 km/h 11 km/h 91% 0.00 mm 37.00 W/m2 unknown
09:59 4.0 °C 3.0 °C 1009.6 hPa ENE 7 km/h 11 km/h 91% 0.00 mm 39.00 W/m2 unknown
10:04 4.0 °C 3.0 °C 1009.7 hPa ENE 8 km/h 13 km/h 91% 0.00 mm 51.00 W/m2 unknown
10:09 4.0 °C 3.0 °C 1009.7 hPa East 8 km/h 13 km/h 90% 0.00 mm 63.00 W/m2 unknown
10:14 4.0 °C 3.0 °C 1009.7 hPa East 9 km/h 13 km/h 90% 0.00 mm 69.00 W/m2 unknown
10:19 4.0 °C 3.0 °C 1009.5 hPa East 11 km/h 13 km/h 91% 0.00 mm 91.00 W/m2 unknown
10:24 4.0 °C 3.0 °C 1009.5 hPa East 12 km/h 15 km/h 91% 0.00 mm 109.00 W/m2 unknown
10:29 5.0 °C 3.0 °C 1009.7 hPa East 11 km/h 15 km/h 91% 0.00 mm 98.00 W/m2 unknown
10:34 5.0 °C 3.0 °C 1009.7 hPa ESE 12 km/h 15 km/h 90% 0.00 mm 79.00 W/m2 unknown
10:39 5.0 °C 3.0 °C 1009.7 hPa East 11 km/h 15 km/h 90% 0.00 mm 84.00 W/m2 unknown
10:44 5.0 °C 3.0 °C 1009.5 hPa East 11 km/h 14 km/h 90% 0.00 mm 109.00 W/m2 unknown
10:49 5.0 °C 3.0 °C 1009.3 hPa East 12 km/h 15 km/h 90% 0.00 mm 114.00 W/m2 unknown
10:54 5.0 °C 3.0 °C 1009.4 hPa ESE 13 km/h 17 km/h 89% 0.00 mm 81.00 W/m2 unknown
10:59 5.0 °C 3.0 °C 1009.4 hPa East 11 km/h 17 km/h 89% 0.00 mm 65.00 W/m2 unknown
11:04 5.0 °C 3.0 °C 1009.4 hPa ESE 12 km/h 17 km/h 89% 0.00 mm 65.00 W/m2 unknown
11:09 5.0 °C 3.0 °C 1009.4 hPa ESE 11 km/h 17 km/h 89% 0.00 mm 56.00 W/m2 unknown
11:14 5.0 °C 3.0 °C 1009.5 hPa East 7 km/h 13 km/h 89% 0.00 mm 58.00 W/m2 unknown
11:19 5.0 °C 3.0 °C 1009.5 hPa East 8 km/h 10 km/h 89% 0.00 mm 69.00 W/m2 unknown
11:24 5.0 °C 3.0 °C 1009.6 hPa ESE 4 km/h 10 km/h 89% 0.00 mm 69.00 W/m2 unknown
11:29 5.0 °C 3.0 °C 1009.6 hPa East 6 km/h 10 km/h 89% 0.00 mm 79.00 W/m2 unknown
11:34 5.0 °C 3.0 °C 1009.5 hPa East 7 km/h 10 km/h 88% 0.00 mm 79.00 W/m2 unknown
11:39 5.0 °C 3.0 °C 1009.6 hPa ESE 8 km/h 10 km/h 88% 0.00 mm 67.00 W/m2 unknown
11:44 5.0 °C 3.0 °C 1009.5 hPa ESE 4 km/h 10 km/h 88% 0.00 mm 69.00 W/m2 unknown
11:49 5.0 °C 3.0 °C 1009.4 hPa ESE 7 km/h 8 km/h 88% 0.00 mm 81.00 W/m2 unknown
11:54 5.0 °C 3.0 °C 1009.4 hPa ESE 7 km/h 10 km/h 88% 0.00 mm 88.00 W/m2 unknown
11:59 5.0 °C 3.0 °C 1009.3 hPa East 8 km/h 11 km/h 88% 0.00 mm 79.00 W/m2 unknown
12:04 5.0 °C 3.0 °C 1009.1 hPa East 10 km/h 13 km/h 88% 0.00 mm 72.00 W/m2 unknown
12:09 5.0 °C 3.0 °C 1009.1 hPa East 10 km/h 13 km/h 88% 0.00 mm 67.00 W/m2 unknown
12:14 5.0 °C 3.0 °C 1009.1 hPa East 9 km/h 11 km/h 88% 0.00 mm 49.00 W/m2 unknown
12:19 5.0 °C 3.0 °C 1009.1 hPa ENE 11 km/h 14 km/h 88% 0.00 mm 40.00 W/m2 unknown
12:24 5.0 °C 3.0 °C 1008.9 hPa East 11 km/h 15 km/h 88% 0.00 mm 40.00 W/m2 unknown
12:29 5.0 °C 3.0 °C 1008.7 hPa East 13 km/h 16 km/h 88% 0.00 mm 40.00 W/m2 unknown
12:34 5.0 °C 4.0 °C 1008.6 hPa East 13 km/h 17 km/h 89% 0.00 mm 49.00 W/m2 unknown
12:39 5.0 °C 4.0 °C 1008.5 hPa East 12 km/h 17 km/h 89% 0.00 mm 49.00 W/m2 unknown
12:44 5.0 °C 4.0 °C 1008.4 hPa East 11 km/h 14 km/h 89% 0.00 mm 39.00 W/m2 unknown
12:49 5.0 °C 4.0 °C 1008.4 hPa ENE 12 km/h 17 km/h 89% 0.00 mm 26.00 W/m2 unknown
12:54 5.0 °C 4.0 °C 1008.2 hPa ENE 9 km/h 16 km/h 89% 0.00 mm 30.00 W/m2 unknown
12:59 5.0 °C 4.0 °C 1008.2 hPa ENE 9 km/h 16 km/h 90% 0.00 mm 30.00 W/m2 unknown
13:04 5.0 °C 4.0 °C 1008.1 hPa ENE 15 km/h 21 km/h 90% 0.00 mm 28.00 W/m2 unknown
13:09 5.0 °C 4.0 °C 1008.1 hPa ENE 14 km/h 21 km/h 90% 0.00 mm 28.00 W/m2 unknown
13:14 5.0 °C 4.0 °C 1008.0 hPa ENE 14 km/h 19 km/h 90% 0.00 mm 30.00 W/m2 unknown
13:19 5.0 °C 4.0 °C 1008.0 hPa East 15 km/h 23 km/h 90% 0.00 mm 30.00 W/m2 unknown
13:24 5.0 °C 4.0 °C 1008.0 hPa East 14 km/h 23 km/h 89% 0.00 mm 26.00 W/m2 unknown
13:29 5.0 °C 4.0 °C 1007.8 hPa East 16 km/h 21 km/h 89% 0.00 mm 28.00 W/m2 unknown
13:34 5.0 °C 4.0 °C 1007.7 hPa East 16 km/h 26 km/h 89% 0.00 mm 28.00 W/m2 unknown
13:39 5.0 °C 3.0 °C 1007.6 hPa ENE 17 km/h 26 km/h 88% 0.00 mm 33.00 W/m2 unknown
13:44 5.0 °C 3.0 °C 1007.4 hPa ENE 17 km/h 26 km/h 88% 0.00 mm 39.00 W/m2 unknown
13:49 5.0 °C 3.0 °C 1007.5 hPa ENE 12 km/h 24 km/h 88% 0.00 mm 39.00 W/m2 unknown
13:54 5.0 °C 3.0 °C 1007.5 hPa ENE 11 km/h 16 km/h 88% 0.00 mm 25.00 W/m2 unknown
13:59 5.0 °C 3.0 °C 1007.5 hPa ENE 10 km/h 15 km/h 88% 0.00 mm 19.00 W/m2 unknown
14:04 5.0 °C 3.0 °C 1007.4 hPa East 16 km/h 21 km/h 89% 0.00 mm 19.00 W/m2 unknown
14:09 5.0 °C 3.0 °C 1007.4 hPa East 13 km/h 21 km/h 89% 0.00 mm 12.00 W/m2 unknown
14:14 5.0 °C 3.0 °C 1007.4 hPa East 12 km/h 19 km/h 89% 0.00 mm 11.00 W/m2 unknown
14:19 5.0 °C 3.0 °C 1007.5 hPa East 11 km/h 17 km/h 90% 0.20 mm 11.00 W/m2 unknown
14:24 5.0 °C 3.0 °C 1007.6 hPa ESE 10 km/h 16 km/h 90% 0.41 mm 9.00 W/m2 unknown
14:29 5.0 °C 3.0 °C 1007.6 hPa ESE 10 km/h 16 km/h 90% 0.41 mm 11.00 W/m2 unknown
14:34 5.0 °C 3.0 °C 1007.7 hPa ESE 11 km/h 17 km/h 91% 0.61 mm 9.00 W/m2 unknown
14:39 5.0 °C 3.0 °C 1007.7 hPa East 10 km/h 13 km/h 91% 0.79 mm 9.00 W/m2 unknown
14:44 5.0 °C 3.0 °C 1007.7 hPa East 11 km/h 13 km/h 91% 0.99 mm 7.00 W/m2 unknown
14:49 5.0 °C 3.0 °C 1007.8 hPa ESE 10 km/h 13 km/h 91% 1.19 mm 7.00 W/m2 unknown
14:54 4.0 °C 3.0 °C 1007.8 hPa East 10 km/h 13 km/h 92% 1.60 mm 9.00 W/m2 unknown
14:59 4.0 °C 3.0 °C 1007.6 hPa ENE 11 km/h 13 km/h 92% 1.80 mm 9.00 W/m2 unknown
15:04 4.0 °C 3.0 °C 1007.6 hPa East 8 km/h 13 km/h 92% 2.21 mm 7.00 W/m2 unknown
15:09 4.0 °C 3.0 °C 1007.6 hPa East 7 km/h 11 km/h 92% 2.39 mm 5.00 W/m2 unknown
15:14 4.0 °C 3.0 °C 1007.5 hPa East 8 km/h 11 km/h 92% 2.79 mm 5.00 W/m2 unknown
15:19 4.0 °C 3.0 °C 1007.3 hPa East 11 km/h 19 km/h 93% 3.20 mm 7.00 W/m2 unknown
15:24 4.0 °C 3.0 °C 1007.2 hPa East 12 km/h 19 km/h 93% 3.20 mm 7.00 W/m2 unknown
15:29 4.0 °C 3.0 °C 1007.0 hPa ENE 14 km/h 19 km/h 93% 3.20 mm 7.00 W/m2 unknown
15:34 4.0 °C 3.0 °C 1006.9 hPa ENE 15 km/h 19 km/h 93% 3.40 mm 0.00 W/m2 unknown
15:39 4.0 °C 3.0 °C 1006.8 hPa ENE 14 km/h 21 km/h 94% 3.40 mm 0.00 W/m2 unknown
15:44 4.0 °C 3.0 °C 1006.8 hPa ENE 14 km/h 23 km/h 94% 3.40 mm 5.00 W/m2 unknown
15:49 4.0 °C 3.0 °C 1006.7 hPa ENE 15 km/h 22 km/h 94% 3.40 mm 5.00 W/m2 unknown
15:54 4.0 °C 3.0 °C 1006.6 hPa East 15 km/h 23 km/h 94% 3.40 mm 0.00 W/m2 unknown
15:59 4.0 °C 3.0 °C 1006.6 hPa East 14 km/h 23 km/h 94% 3.40 mm 0.00 W/m2 unknown
16:04 4.0 °C 3.0 °C 1006.5 hPa ENE 20 km/h 24 km/h 94% 3.61 mm 0.00 W/m2 unknown
16:09 4.0 °C 3.0 °C 1006.4 hPa ENE 17 km/h 24 km/h 94% 3.61 mm 0.00 W/m2 unknown
16:14 4.0 °C 3.0 °C 1006.3 hPa ENE 16 km/h 24 km/h 94% 3.40 mm 0.00 W/m2 unknown
16:19 4.0 °C 3.0 °C 1006.1 hPa ENE 13 km/h 23 km/h 94% 3.40 mm 0.00 W/m2 unknown
16:24 4.0 °C 3.0 °C 1006.1 hPa ENE 16 km/h 23 km/h 94% 3.20 mm 0.00 W/m2 unknown
16:29 4.0 °C 3.0 °C 1006.2 hPa ENE 13 km/h 23 km/h 95% 3.00 mm 0.00 W/m2 unknown
16:34 4.0 °C 3.0 °C 1006.1 hPa ENE 10 km/h 14 km/h 95% 3.00 mm 0.00 W/m2 unknown
16:39 4.0 °C 3.0 °C 1006.1 hPa ENE 10 km/h 15 km/h 95% 2.79 mm 0.00 W/m2 unknown
16:44 4.0 °C 3.0 °C 1005.9 hPa ENE 11 km/h 15 km/h 95% 2.79 mm 0.00 W/m2 unknown
16:49 4.0 °C 3.0 °C 1005.8 hPa ENE 11 km/h 17 km/h 95% 2.79 mm 0.00 W/m2 unknown
16:54 4.0 °C 3.0 °C 1005.7 hPa ENE 11 km/h 17 km/h 95% 2.79 mm 0.00 W/m2 unknown
16:59 4.0 °C 3.0 °C 1005.5 hPa ENE 8 km/h 16 km/h 95% 2.79 mm 0.00 W/m2 unknown
17:04 4.0 °C 3.0 °C 1005.5 hPa ENE 8 km/h 13 km/h 95% 2.79 mm 0.00 W/m2 unknown
17:09 4.0 °C 3.0 °C 1005.5 hPa NE 5 km/h 13 km/h 95% 2.59 mm 0.00 W/m2 unknown
17:14 4.0 °C 3.0 °C 1005.3 hPa NE 3 km/h 6 km/h 95% 2.59 mm 0.00 W/m2 unknown
17:19 4.0 °C 3.0 °C 1005.3 hPa NNE 2 km/h 5 km/h 95% 2.59 mm 0.00 W/m2 unknown
17:24 4.0 °C 3.0 °C 1005.3 hPa NNE 2 km/h 4 km/h 95% 2.59 mm 0.00 W/m2 unknown
17:29 4.0 °C 3.0 °C 1005.0 hPa NNE 2 km/h 4 km/h 95% 2.39 mm 0.00 W/m2 unknown
17:34 4.0 °C 3.0 °C 1004.9 hPa NE 4 km/h 6 km/h 95% 2.59 mm 0.00 W/m2 unknown
17:39 4.0 °C 3.0 °C 1004.7 hPa NE 3 km/h 6 km/h 95% 2.59 mm 0.00 W/m2 unknown
17:44 4.0 °C 3.0 °C 1004.7 hPa NE 2 km/h 5 km/h 95% 2.79 mm 0.00 W/m2 unknown
17:49 4.0 °C 3.0 °C 1004.6 hPa NE 2 km/h 4 km/h 95% 2.59 mm 0.00 W/m2 unknown
17:54 4.0 °C 3.0 °C 1004.6 hPa NE 3 km/h 4 km/h 95% 2.59 mm 0.00 W/m2 unknown
17:59 4.0 °C 3.0 °C 1004.6 hPa NNW 3 km/h 4 km/h 95% 2.59 mm 0.00 W/m2 unknown
18:04 4.0 °C 3.0 °C 1004.5 hPa WNW 2 km/h 4 km/h 95% 2.59 mm 0.00 W/m2 unknown
18:09 4.0 °C 3.0 °C 1004.6 hPa WSW 5 km/h 6 km/h 95% 2.59 mm 0.00 W/m2 unknown
18:14 4.0 °C 3.0 °C 1004.8 hPa SW 8 km/h 11 km/h 95% 2.59 mm 0.00 W/m2 unknown
18:19 4.0 °C 3.0 °C 1004.8 hPa SW 6 km/h 11 km/h 95% 2.59 mm 0.00 W/m2 unknown
18:24 4.0 °C 3.0 °C 1004.6 hPa SSW 5 km/h 11 km/h 95% 2.59 mm 0.00 W/m2 unknown
18:29 4.0 °C 3.0 °C 1004.5 hPa SW 4 km/h 6 km/h 95% 2.59 mm 0.00 W/m2 unknown
18:34 4.0 °C 3.0 °C 1004.5 hPa WSW 4 km/h 6 km/h 95% 2.59 mm 0.00 W/m2 unknown
18:39 4.0 °C 3.0 °C 1004.6 hPa WSW 5 km/h 6 km/h 95% 2.21 mm 0.00 W/m2 unknown
18:44 4.0 °C 3.0 °C 1004.6 hPa SW 5 km/h 8 km/h 95% 2.21 mm 0.00 W/m2 unknown
18:49 4.0 °C 3.0 °C 1004.6 hPa WSW 5 km/h 6 km/h 95% 2.21 mm 0.00 W/m2 unknown
18:54 4.0 °C 3.0 °C 1004.4 hPa WSW 1 km/h 4 km/h 95% 2.21 mm 0.00 W/m2 unknown
18:59 4.0 °C 3.0 °C 1004.4 hPa West 3 km/h 4 km/h 95% 2.21 mm 0.00 W/m2 unknown
19:04 4.0 °C 3.0 °C 1004.3 hPa WNW 4 km/h 6 km/h 95% 2.39 mm 0.00 W/m2 unknown
19:09 4.0 °C 4.0 °C 1004.2 hPa WNW 3 km/h 5 km/h 95% 2.21 mm 0.00 W/m2 unknown
19:14 4.0 °C 3.0 °C 1004.0 hPa NNW 3 km/h 4 km/h 95% 2.01 mm 0.00 W/m2 unknown
19:19 4.0 °C 3.0 °C 1004.0 hPa WNW 4 km/h 6 km/h 95% 2.01 mm 0.00 W/m2 unknown
19:24 4.0 °C 4.0 °C 1003.9 hPa WNW 5 km/h 6 km/h 95% 2.01 mm 0.00 W/m2 unknown
19:29 4.0 °C 3.0 °C 1003.8 hPa WNW 6 km/h 8 km/h 95% 2.01 mm 0.00 W/m2 unknown
19:34 4.0 °C 3.0 °C 1003.9 hPa West 6 km/h 8 km/h 95% 1.80 mm 0.00 W/m2 unknown
19:39 4.0 °C 3.0 °C 1003.8 hPa West 5 km/h 6 km/h 95% 1.80 mm 0.00 W/m2 unknown
19:44 4.0 °C 3.0 °C 1003.8 hPa West 5 km/h 6 km/h 95% 1.80 mm 0.00 W/m2 unknown
19:49 4.0 °C 3.0 °C 1003.6 hPa WNW 5 km/h 6 km/h 95% 1.80 mm 0.00 W/m2 unknown
19:54 4.0 °C 3.0 °C 1003.6 hPa WNW 5 km/h 6 km/h 95% 1.80 mm 0.00 W/m2 unknown
19:59 4.0 °C 4.0 °C 1003.5 hPa NW 4 km/h 6 km/h 96% 1.80 mm 0.00 W/m2 unknown
20:04 4.0 °C 4.0 °C 1003.5 hPa WNW 7 km/h 8 km/h 96% 1.80 mm 0.00 W/m2 unknown
20:09 4.0 °C 4.0 °C 1003.5 hPa WNW 7 km/h 8 km/h 96% 1.80 mm 0.00 W/m2 unknown
20:14 4.0 °C 4.0 °C 1003.6 hPa West 6 km/h 8 km/h 96% 1.80 mm 0.00 W/m2 unknown
20:19 4.0 °C 4.0 °C 1003.8 hPa WSW 8 km/h 11 km/h 96% 1.80 mm 0.00 W/m2 unknown
20:24 4.0 °C 4.0 °C 1003.9 hPa WSW 10 km/h 13 km/h 96% 2.01 mm 0.00 W/m2 unknown
20:29 4.0 °C 4.0 °C 1003.9 hPa WSW 9 km/h 11 km/h 96% 2.01 mm 0.00 W/m2 unknown
20:34 4.0 °C 4.0 °C 1003.6 hPa West 5 km/h 6 km/h 96% 2.21 mm 0.00 W/m2 unknown
20:39 4.0 °C 4.0 °C 1003.3 hPa WNW 3 km/h 6 km/h 96% 2.59 mm 0.00 W/m2 unknown
20:44 4.0 °C 4.0 °C 1003.0 hPa NW 3 km/h 6 km/h 96% 2.59 mm 0.00 W/m2 unknown
20:49 4.0 °C 4.0 °C 1002.7 hPa NW 3 km/h 6 km/h 96% 2.59 mm 0.00 W/m2 unknown
20:54 4.0 °C 4.0 °C 1002.6 hPa WNW 4 km/h 6 km/h 96% 2.39 mm 0.00 W/m2 unknown
20:59 4.0 °C 4.0 °C 1002.6 hPa West 5 km/h 6 km/h 96% 2.21 mm 0.00 W/m2 unknown
21:04 4.0 °C 4.0 °C 1002.7 hPa West 7 km/h 10 km/h 96% 2.21 mm 0.00 W/m2 unknown
21:09 4.0 °C 4.0 °C 1002.7 hPa West 8 km/h 13 km/h 96% 2.01 mm 0.00 W/m2 unknown
21:14 4.0 °C 4.0 °C 1002.7 hPa West 10 km/h 13 km/h 96% 2.01 mm 0.00 W/m2 unknown
21:19 4.0 °C 4.0 °C 1002.9 hPa West 11 km/h 15 km/h 96% 2.01 mm 0.00 W/m2 unknown
21:24 4.0 °C 4.0 °C 1003.0 hPa West 11 km/h 15 km/h 96% 1.80 mm 0.00 W/m2 unknown
21:29 4.0 °C 4.0 °C 1003.1 hPa West 13 km/h 19 km/h 96% 1.80 mm 0.00 W/m2 unknown
21:34 4.0 °C 4.0 °C 1003.4 hPa WSW 11 km/h 19 km/h 96% 1.60 mm 0.00 W/m2 unknown
21:39 4.0 °C 4.0 °C 1003.4 hPa WSW 12 km/h 17 km/h 96% 1.60 mm 0.00 W/m2 unknown
21:44 4.0 °C 4.0 °C 1003.4 hPa West 15 km/h 19 km/h 96% 1.80 mm 0.00 W/m2 unknown
21:49 4.0 °C 4.0 °C 1003.5 hPa West 14 km/h 19 km/h 96% 2.21 mm 0.00 W/m2 unknown
21:54 4.0 °C 4.0 °C 1003.4 hPa West 14 km/h 19 km/h 96% 2.59 mm 0.00 W/m2 unknown
21:59 4.0 °C 4.0 °C 1003.5 hPa West 16 km/h 19 km/h 96% 2.79 mm 0.00 W/m2 unknown
22:04 4.0 °C 4.0 °C 1003.6 hPa West 15 km/h 21 km/h 96% 3.00 mm 0.00 W/m2 unknown
22:09 4.0 °C 4.0 °C 1003.5 hPa WNW 11 km/h 19 km/h 96% 3.20 mm 0.00 W/m2 unknown
22:14 4.0 °C 4.0 °C 1003.3 hPa WNW 10 km/h 13 km/h 96% 3.40 mm 0.00 W/m2 unknown
22:19 4.0 °C 4.0 °C 1003.2 hPa West 9 km/h 13 km/h 96% 3.61 mm 0.00 W/m2 unknown
22:24 4.0 °C 4.0 °C 1003.2 hPa West 9 km/h 11 km/h 96% 3.61 mm 0.00 W/m2 unknown
22:29 4.0 °C 4.0 °C 1003.4 hPa West 10 km/h 14 km/h 96% 3.61 mm 0.00 W/m2 unknown
22:34 4.0 °C 4.0 °C 1003.4 hPa West 13 km/h 17 km/h 96% 3.61 mm 0.00 W/m2 unknown
22:39 4.0 °C 4.0 °C 1003.3 hPa West 13 km/h 17 km/h 96% 3.40 mm 0.00 W/m2 unknown
22:44 4.0 °C 4.0 °C 1003.2 hPa WNW 15 km/h 23 km/h 96% 3.20 mm 0.00 W/m2 unknown
22:49 4.0 °C 4.0 °C 1003.2 hPa WNW 16 km/h 23 km/h 96% 2.59 mm 0.00 W/m2 unknown
22:54 4.0 °C 4.0 °C 1003.2 hPa WNW 16 km/h 23 km/h 96% 2.01 mm 0.00 W/m2 unknown
22:59 4.0 °C 4.0 °C 1003.1 hPa WNW 15 km/h 21 km/h 96% 1.60 mm 0.00 W/m2 unknown
23:04 4.0 °C 4.0 °C 1003.2 hPa WNW 16 km/h 21 km/h 96% 1.19 mm 0.00 W/m2 unknown
23:09 4.0 °C 4.0 °C 1003.1 hPa WNW 15 km/h 21 km/h 96% 0.99 mm 0.00 W/m2 unknown
23:14 4.0 °C 4.0 °C 1003.1 hPa WNW 16 km/h 21 km/h 96% 0.99 mm 0.00 W/m2 unknown
23:19 4.0 °C 4.0 °C 1003.2 hPa West 14 km/h 21 km/h 96% 0.61 mm 0.00 W/m2 unknown
23:24 4.0 °C 4.0 °C 1003.2 hPa West 14 km/h 19 km/h 96% 0.20 mm 0.00 W/m2 unknown
23:29 4.0 °C 4.0 °C 1003.2 hPa West 14 km/h 19 km/h 96% 0.20 mm 0.00 W/m2 unknown
23:34 4.0 °C 4.0 °C 1003.2 hPa West 14 km/h 19 km/h 96% 0.00 mm 0.00 W/m2 unknown
23:39 4.0 °C 4.0 °C 1003.0 hPa WNW 14 km/h 21 km/h 96% 0.00 mm 0.00 W/m2 unknown
23:44 4.0 °C 4.0 °C 1002.9 hPa West 15 km/h 23 km/h 96% 0.00 mm 0.00 W/m2 unknown
23:49 4.0 °C 4.0 °C 1003.1 hPa West 14 km/h 23 km/h 96% 0.00 mm 0.00 W/m2 unknown
23:54 4.0 °C 4.0 °C 1003.1 hPa WNW 17 km/h 21 km/h 96% 0.00 mm 0.00 W/m2 unknown
23:59 4.0 °C 4.0 °C 1003.1 hPa WNW 18 km/h 21 km/h 96% 0.00 mm 0.00 W/m2 unknown
Stazione Meteorologica MeteoMincio Rivalta s/M (MN)
Con i complimenti di Weather Underground - 4 mb



GLOSSARIO METEOROLOGICO
Punto di Rugiada (Dewpoint)
Il valore di temperatura (in °C) a cui l'aria dovrebbe essere raffreddata (a pressione costante) per raggiungere il 100% di umidità relativa, ovvero, per saturarla di vapore.
Share

Non seguire questo link o sarai bannato dal sito!